Location: Aldenham
(51.6667°N, 0.3500°W)
Time: 18:31:13
(UTC+00:00)

Explorer 7 - Pass Details

Date: 15 February 2026
Orbit: 430 x 542 km, 50.2° (Epoch: 8 March)

Event Time Altitude Azimuth Distance (km) Brightness Sun altitude
Rises 17:42:41 0° 249° (WSW) 2,478 12.7 -4.8°
Reaches altitude 10° 17:44:48 10° 245° (WSW) 1,624 11.0 -5.1°
Maximum altitude 17:48:25 58° 166° (SSE) 564 6.9 -5.6°
Drops below altitude 10° 17:52:11 10° 87° (E) 1,697 8.7 -6.2°
Enters shadow 17:52:39 - 86° (E) 1,878 8.9 -6.3°
Sets 17:54:27 0° 84° (E) 2,604 - -6.5°
